Flag for Germany Weather past 2 weeks in Weyhe, Lower Saxony, Germany

Now
66 °F

Clear.


Feels Like: 66 °F
Forecast: 60 / 74 °F
Wind: 10 mph from West

Location: Bremen Airport

Current Time: Jul 6, 2015 at 12:12:00 AM

Latest Report: Jul 5, 2015 at 11:20 PM


Visibility: 10 mi

Pressure: 29.95 "Hg

Humidity: 88%

Dew point: 63 °F

Location of WeyheLocation

Historic Weather in Weyhe — Graph

°F

Weyhe temperature yesterday

Maximum temperature yesterday: 77 °F (at 11:20 AM)
Minimum temperature yesterday: 66 °F (at 9:50 PM)
Average temperature yesterday: 72 °F

Past Weeks' High & Low Weather Summary

 TemperatureHumidityPressure
High97 °F (Jul 4, 3:20 PM)100% (Jun 21, 3:20 AM)30.27 "Hg (Jun 21, 3:20 AM)
Low46 °F (Jun 20, 11:20 PM)30% (Jul 2, 3:20 PM)29.65 "Hg (Jun 22, 7:50 PM)
Average66 °F71%30.05 "Hg
* Reported Jun 20 10:20 PM — Jul 5 10:50 PM, Weyhe, Weather by CustomWeather, © 2015

Note: Actual official high and low records may vary slightly from our data, if they occured in-between our weather recording intervals... More about our weather records

Advertising

Weyhe weather history for previous 24 hours

 ConditionsComfort  
Time TempWeatherWind HumidityBarometerVisibility
10:50 PM
Sun, Jul 5
66 °FBroken clouds.6 mph94%29.95 "HgN/A
10:20 PM66 °FBroken clouds.7 mph94%29.95 "HgN/A
9:50 PM66 °FPartly sunny.9 mph94%29.92 "HgN/A
9:20 PM68 °FThundershowers. Broken clouds.12 mph94%29.92 "HgN/A
8:50 PM70 °FThunderstorms. Broken clouds.17 mph88%29.92 "Hg3 mi
8:20 PM72 °FMostly cloudy.5 mph88%29.89 "HgN/A
7:50 PM72 °FSprinkles. More clouds than sun.5 mph88%29.89 "HgN/A
7:20 PM72 °FBroken clouds.3 mph88%29.89 "HgN/A
6:50 PM72 °FBroken clouds.5 mph88%29.86 "HgN/A
6:20 PM73 °FBroken clouds.5 mph83%29.89 "HgN/A
5:50 PM73 °FThundershowers. Broken clouds.2 mph83%29.89 "HgN/A
5:20 PM73 °FScattered showers. Partly sunny.7 mph83%29.89 "HgN/A
4:50 PM75 °FThundershowers. Partly sunny.8 mph78%29.92 "HgN/A
4:20 PM73 °FSprinkles. Broken clouds.8 mph89%29.92 "HgN/A
3:50 PM73 °FThunderstorms. Broken clouds.7 mph83%29.92 "HgN/A
3:20 PM73 °FThunderstorms. Broken clouds.2 mph78%29.95 "HgN/A
2:50 PM73 °FScattered showers. Broken clouds.10 mph78%29.95 "HgN/A
2:20 PM72 °FSprinkles. Broken clouds.12 mph78%29.98 "HgN/A
1:50 PM73 °FSprinkles. Broken clouds.12 mph78%30.04 "Hg5 mi
1:20 PM77 °FSprinkles. Broken clouds.9 mph74%30.04 "Hg5 mi
12:50 PM77 °FBroken clouds.2 mph74%30.04 "Hg5 mi
12:20 PM77 °FSprinkles. Broken clouds.2 mph74%30.04 "Hg5 mi
11:50 AM77 °FClear.2 mph69%30.04 "Hg5 mi
11:20 AM77 °FClear.2 mph69%30.04 "Hg4 mi
10:50 AM75 °FClear.2 mph78%30.04 "Hg4 mi
10:20 AM75 °FClear.3 mph74%30.04 "Hg4 mi
9:50 AM73 °FFog.3 mph78%30.07 "Hg3 mi
9:20 AM73 °FFog.5 mph78%30.07 "Hg3 mi
8:50 AM73 °FFog.5 mph78%30.07 "Hg3 mi
8:20 AM73 °FFog.5 mph78%30.07 "Hg2 mi
7:50 AM72 °FFog.3 mph83%30.07 "Hg2 mi
7:20 AM68 °FFog.5 mph94%30.07 "Hg2 mi
6:50 AM68 °FFog.9 mph94%30.07 "Hg2 mi
6:20 AM68 °FFog.6 mph94%30.07 "Hg3 mi
5:20 AM70 °FPassing clouds.10 mph88%30.09 "Hg5 mi
4:50 AM68 °FPassing clouds.9 mph88%30.09 "Hg6 mi
4:20 AM70 °FClear.5 mph83%30.07 "Hg10 mi
3:50 AM70 °FClear.5 mph83%30.07 "Hg10 mi
3:20 AM70 °FClear.6 mph88%30.09 "Hg10 mi
2:50 AM68 °FClear.5 mph88%30.09 "Hg10 mi
2:20 AM68 °FClear.5 mph88%30.09 "Hg10 mi
1:50 AM70 °FClear.1 mph83%30.09 "Hg10 mi
1:20 AM72 °FClear.5 mph78%30.09 "Hg10 mi
12:50 AM75 °FClear.9 mph69%30.09 "Hg10 mi
12:20 AM75 °FClear.9 mph74%30.07 "Hg10 mi
Weather by CustomWeather, © 2015

See weather overviewHow to use our weather pages